TimeEDT,TemperatureF,Dew PointF,Humidity,Sea Level PressureIn,VisibilityMPH,Wind Direction,Wind SpeedMPH,Gust SpeedMPH,PrecipitationIn,Events,Conditions,WindDirDegrees,DateUTC
12:15 AM,41.0,37.4,87,30.20,10.0,Calm,Calm,-,N/A,,Clear,0,2012-10-12 04:15:00
12:35 AM,42.8,39.2,87,30.20,10.0,Calm,Calm,-,N/A,,Clear,0,2012-10-12 04:35:00
12:55 AM,42.8,37.4,81,30.19,10.0,Calm,Calm,-,N/A,,Clear,0,2012-10-12 04:55:00
1:15 AM,42.8,37.4,81,30.19,10.0,Calm,Calm,-,N/A,,Clear,0,2012-10-12 05:15:00
1:35 AM,41.0,37.4,87,30.19,10.0,Calm,Calm,-,N/A,,Clear,0,2012-10-12 05:35:00
1:55 AM,39.2,37.4,93,30.19,10.0,Calm,Calm,-,N/A,,Clear,0,2012-10-12 05:55:00
2:15 AM,39.2,37.4,93,30.19,10.0,Calm,Calm,-,N/A,,Clear,0,2012-10-12 06:15:00
2:35 AM,39.2,37.4,93,30.18,10.0,Calm,Calm,-,N/A,,Clear,0,2012-10-12 06:35:00
2:55 AM,39.2,37.4,93,30.19,10.0,Calm,Calm,-,N/A,,Clear,0,2012-10-12 06:55:00
3:15 AM,39.2,37.4,93,30.18,10.0,Calm,Calm,-,N/A,,Clear,0,2012-10-12 07:15:00
3:35 AM,39.2,37.4,93,30.17,10.0,Calm,Calm,-,N/A,,Clear,0,2012-10-12 07:35:00
3:55 AM,39.2,37.4,93,30.17,10.0,Calm,Calm,-,N/A,,Clear,0,2012-10-12 07:55:00
4:15 AM,37.4,37.4,100,30.17,9.0,Calm,Calm,-,N/A,,Clear,0,2012-10-12 08:15:00
4:35 AM,39.2,37.4,93,30.17,10.0,Calm,Calm,-,N/A,,Clear,0,2012-10-12 08:35:00
4:55 AM,39.2,37.4,93,30.17,10.0,Calm,Calm,-,N/A,,Clear,0,2012-10-12 08:55:00
5:15 AM,39.2,37.4,93,30.17,10.0,Calm,Calm,-,N/A,,Clear,0,2012-10-12 09:15:00
5:35 AM,37.4,37.4,100,30.17,10.0,Calm,Calm,-,N/A,,Clear,0,2012-10-12 09:35:00
5:55 AM,37.4,35.6,93,30.17,7.0,Calm,Calm,-,N/A,,Clear,0,2012-10-12 09:55:00
6:15 AM,37.4,35.6,93,30.17,8.0,Calm,Calm,-,N/A,,Clear,0,2012-10-12 10:15:00
6:55 AM,39.2,37.4,93,30.17,10.0,Calm,Calm,-,N/A,,Clear,0,2012-10-12 10:55:00
7:15 AM,39.2,37.4,93,30.17,10.0,Calm,Calm,-,N/A,,Clear,0,2012-10-12 11:15:00
7:35 AM,39.2,37.4,93,30.18,10.0,Calm,Calm,-,N/A,,Clear,0,2012-10-12 11:35:00
7:55 AM,39.2,39.2,100,30.19,10.0,Calm,Calm,-,N/A,,Clear,0,2012-10-12 11:55:00
8:15 AM,42.8,41.0,93,30.20,10.0,Calm,Calm,-,N/A,,Clear,0,2012-10-12 12:15:00
8:35 AM,44.6,42.8,93,30.20,10.0,NW,4.6,-,N/A,,Clear,320,2012-10-12 12:35:00
8:55 AM,48.2,41.0,76,30.21,10.0,NW,6.9,-,N/A,,Clear,310,2012-10-12 12:55:00
9:15 AM,50.0,42.8,76,30.21,10.0,NW,8.1,-,N/A,,Clear,310,2012-10-12 13:15:00
9:35 AM,53.6,42.8,67,30.22,10.0,NW,10.4,-,N/A,,Clear,310,2012-10-12 13:35:00
10:15 AM,57.2,37.4,48,30.23,10.0,NW,13.8,-,N/A,,Clear,320,2012-10-12 14:15:00
10:35 AM,57.2,37.4,48,30.23,10.0,NW,12.7,16.1,N/A,,Clear,320,2012-10-12 14:35:00
10:55 AM,57.2,37.4,48,30.23,10.0,NNW,11.5,17.3,N/A,,Clear,340,2012-10-12 14:55:00
11:15 AM,59.0,37.4,45,30.24,10.0,NW,13.8,19.6,N/A,,Clear,320,2012-10-12 15:15:00
11:35 AM,59.0,37.4,45,30.24,10.0,NNW,9.2,17.3,N/A,,Clear,330,2012-10-12 15:35:00
11:55 AM,60.8,37.4,42,30.24,10.0,NW,12.7,18.4,N/A,,Clear,320,2012-10-12 15:55:00
12:15 PM,60.8,39.2,45,30.24,10.0,NNW,9.2,18.4,N/A,,Clear,330,2012-10-12 16:15:00
12:35 PM,62.6,39.2,42,30.25,10.0,NNW,15.0,21.9,N/A,,Clear,330,2012-10-12 16:35:00
12:55 PM,62.6,39.2,42,30.25,10.0,NNW,8.1,23.0,N/A,,Clear,340,2012-10-12 16:55:00
1:15 PM,62.6,42.8,48,30.24,10.0,NNW,12.7,18.4,N/A,,Clear,340,2012-10-12 17:15:00
1:35 PM,62.6,41.0,45,30.25,10.0,NNW,10.4,21.9,N/A,,Clear,340,2012-10-12 17:35:00
1:55 PM,62.6,41.0,45,30.25,10.0,NW,15.0,24.2,N/A,,Clear,320,2012-10-12 17:55:00
2:35 PM,62.6,42.8,48,30.25,10.0,NNW,11.5,25.3,N/A,,Partly Cloudy,340,2012-10-12 18:35:00
2:55 PM,59.0,39.2,48,30.25,10.0,NNE,10.4,20.7,N/A,,Partly Cloudy,20,2012-10-12 18:55:00
3:15 PM,57.2,39.2,51,30.26,10.0,NNW,16.1,25.3,N/A,,Clear,330,2012-10-12 19:15:00
3:35 PM,57.2,39.2,51,30.27,10.0,NNW,12.7,23.0,N/A,,Clear,340,2012-10-12 19:35:00
3:55 PM,55.4,35.6,47,30.29,10.0,NNW,13.8,29.9,N/A,,Clear,330,2012-10-12 19:55:00
4:15 PM,55.4,35.6,47,30.29,10.0,NNW,12.7,25.3,N/A,,Clear,330,2012-10-12 20:15:00
4:35 PM,55.4,33.8,44,30.30,10.0,North,9.2,17.3,N/A,,Clear,350,2012-10-12 20:35:00
4:55 PM,55.4,33.8,44,30.30,10.0,NNW,10.4,-,N/A,,Clear,330,2012-10-12 20:55:00
5:15 PM,53.6,30.2,41,30.31,10.0,North,4.6,-,N/A,,Clear,360,2012-10-12 21:15:00
5:35 PM,55.4,30.2,38,30.31,10.0,NNW,10.4,17.3,N/A,,Clear,340,2012-10-12 21:35:00
5:55 PM,53.6,30.2,41,30.32,10.0,North,3.5,-,N/A,,Clear,360,2012-10-12 21:55:00
6:15 PM,53.6,30.2,41,30.33,10.0,North,3.5,-,N/A,,Clear,360,2012-10-12 22:15:00
6:55 PM,50.0,30.2,47,30.34,10.0,NNW,3.5,-,N/A,,Clear,340,2012-10-12 22:55:00
7:15 PM,48.2,32.0,54,30.35,10.0,Calm,Calm,-,N/A,,Clear,0,2012-10-12 23:15:00
7:35 PM,44.6,33.8,66,30.36,10.0,Calm,Calm,-,N/A,,Clear,0,2012-10-12 23:35:00
7:55 PM,44.6,33.8,66,30.37,10.0,Calm,Calm,-,N/A,,Clear,0,2012-10-12 23:55:00
8:15 PM,42.8,35.6,76,30.38,10.0,Calm,Calm,-,N/A,,Clear,0,2012-10-13 00:15:00
8:35 PM,42.8,33.8,70,30.39,10.0,Calm,Calm,-,N/A,,Clear,0,2012-10-13 00:35:00
8:55 PM,41.0,33.8,76,30.39,10.0,Calm,Calm,-,N/A,,Clear,0,2012-10-13 00:55:00
9:15 PM,39.2,35.6,87,30.40,10.0,Calm,Calm,-,N/A,,Clear,0,2012-10-13 01:15:00
9:35 PM,39.2,35.6,87,30.41,10.0,Calm,Calm,-,N/A,,Clear,0,2012-10-13 01:35:00
10:15 PM,39.2,33.8,81,30.44,10.0,Calm,Calm,-,N/A,,Clear,0,2012-10-13 02:15:00
10:35 PM,41.0,33.8,76,30.45,10.0,NNE,3.5,-,N/A,,Clear,30,2012-10-13 02:35:00
10:55 PM,41.0,32.0,70,30.45,10.0,Calm,Calm,-,N/A,,Clear,0,2012-10-13 02:55:00
11:15 PM,42.8,30.2,61,30.45,10.0,NE,4.6,-,N/A,,Clear,50,2012-10-13 03:15:00
11:55 PM,42.8,30.2,61,30.46,10.0,Calm,Calm,-,N/A,,Clear,0,2012-10-13 03:55:00